TimeEST,TemperatureF,Dew PointF,Humidity,Sea Level PressureIn,VisibilityMPH,Wind Direction,Wind SpeedMPH,Gust SpeedMPH,PrecipitationIn,Events,Conditions,WindDirDegrees,DateUTC
12:53 AM,51.1,48.0,89,30.22,10.0,Calm,Calm,-,0.01,Rain,Light Rain,0,2013-11-16 05:53:00
1:53 AM,51.1,48.0,89,30.23,9.0,Calm,Calm,-,0.00,,Overcast,0,2013-11-16 06:53:00
2:53 AM,51.1,48.9,92,30.22,5.0,Calm,Calm,-,0.00,,Overcast,0,2013-11-16 07:53:00
3:53 AM,51.1,48.9,92,30.23,4.0,Calm,Calm,-,0.01,,Overcast,0,2013-11-16 08:53:00
4:53 AM,50.0,48.0,93,30.22,4.0,East,3.5,-,N/A,,Overcast,90,2013-11-16 09:53:00
5:11 AM,50.0,48.2,94,30.24,4.0,Calm,Calm,-,N/A,,Overcast,0,2013-11-16 10:11:00
5:42 AM,50.0,48.2,94,30.25,4.0,Calm,Calm,-,N/A,,Overcast,0,2013-11-16 10:42:00
5:53 AM,50.0,48.0,93,30.24,4.0,Calm,Calm,-,N/A,,Overcast,0,2013-11-16 10:53:00
6:53 AM,50.0,48.0,93,30.25,4.0,ENE,3.5,-,0.02,,Overcast,70,2013-11-16 11:53:00
7:01 AM,50.0,48.2,94,30.27,4.0,Calm,Calm,-,N/A,,Overcast,0,2013-11-16 12:01:00
7:13 AM,50.0,48.2,94,30.27,2.5,Calm,Calm,-,N/A,,Overcast,0,2013-11-16 12:13:00
7:32 AM,51.8,48.2,88,30.26,3.0,NE,4.6,-,0.01,,Overcast,50,2013-11-16 12:32:00
7:45 AM,51.8,48.2,88,30.26,3.0,East,5.8,-,0.01,,Overcast,80,2013-11-16 12:45:00
7:53 AM,51.1,48.9,92,30.25,3.0,East,3.5,-,0.01,,Overcast,80,2013-11-16 12:53:00
8:12 AM,51.8,48.2,88,30.28,3.0,Calm,Calm,-,N/A,,Overcast,0,2013-11-16 13:12:00
8:53 AM,52.0,50.0,93,30.27,4.0,East,3.5,-,0.01,,Overcast,80,2013-11-16 13:53:00
9:45 AM,53.6,51.8,94,30.28,3.0,NE,3.5,-,N/A,,Overcast,50,2013-11-16 14:45:00
9:53 AM,54.0,51.1,90,30.27,4.0,NE,3.5,-,N/A,,Overcast,40,2013-11-16 14:53:00
10:53 AM,55.0,52.0,89,30.28,4.0,Calm,Calm,-,0.01,,Overcast,0,2013-11-16 15:53:00
11:53 AM,55.9,53.1,90,30.26,3.0,Calm,Calm,-,N/A,,Overcast,0,2013-11-16 16:53:00
12:53 PM,57.0,53.1,87,30.26,5.0,Variable,4.6,-,0.01,,Overcast,0,2013-11-16 17:53:00
1:53 PM,57.9,53.1,84,30.24,6.0,Calm,Calm,-,N/A,,Haze,0,2013-11-16 18:53:00
2:23 PM,60.8,53.6,77,30.25,6.0,Calm,Calm,-,N/A,,Haze,0,2013-11-16 19:23:00
2:53 PM,60.1,53.1,78,30.22,7.0,Calm,Calm,-,N/A,,Overcast,0,2013-11-16 19:53:00
3:18 PM,59.0,53.6,82,30.24,8.0,Calm,Calm,-,N/A,,Overcast,0,2013-11-16 20:18:00
3:53 PM,60.1,53.1,78,30.22,8.0,Calm,Calm,-,N/A,,Overcast,0,2013-11-16 20:53:00
4:53 PM,57.9,53.1,84,30.23,9.0,ESE,3.5,-,N/A,,Overcast,110,2013-11-16 21:53:00
5:44 PM,57.2,53.6,88,30.25,8.0,Calm,Calm,-,N/A,,Overcast,0,2013-11-16 22:44:00
5:53 PM,57.0,53.1,87,30.23,8.0,Calm,Calm,-,N/A,,Overcast,0,2013-11-16 22:53:00
6:21 PM,55.4,53.6,94,30.25,7.0,ENE,3.5,-,N/A,,Overcast,60,2013-11-16 23:21:00
6:53 PM,55.9,53.1,90,30.22,6.0,East,5.8,-,N/A,,Overcast,80,2013-11-16 23:53:00
7:20 PM,53.6,51.8,94,30.23,4.0,East,4.6,-,N/A,,Mostly Cloudy,90,2013-11-17 00:20:00
7:53 PM,55.0,53.1,93,30.24,3.0,East,3.5,-,N/A,,Overcast,80,2013-11-17 00:53:00
8:28 PM,55.4,53.6,94,30.26,4.0,ENE,3.5,-,N/A,,Overcast,70,2013-11-17 01:28:00
8:53 PM,55.9,54.0,93,30.25,3.0,East,3.5,-,N/A,,Overcast,100,2013-11-17 01:53:00
9:53 PM,55.9,54.0,93,30.23,4.0,Variable,3.5,-,N/A,,Overcast,0,2013-11-17 02:53:00
10:23 PM,55.4,55.4,100,30.24,2.5,Calm,Calm,-,N/A,,Overcast,0,2013-11-17 03:23:00
10:53 PM,55.9,54.0,93,30.23,2.0,Calm,Calm,-,N/A,,Overcast,0,2013-11-17 03:53:00
11:10 PM,55.4,53.6,94,30.24,3.0,Calm,Calm,-,N/A,,Overcast,0,2013-11-17 04:10:00
11:49 PM,55.4,53.6,94,30.24,4.0,Calm,Calm,-,N/A,,Overcast,0,2013-11-17 04:49:00
11:53 PM,55.9,54.0,93,30.23,4.0,Variable,3.5,-,N/A,,Overcast,0,2013-11-17 04:53:00